Ravalli County (6S5)
Hamilton, MT
Field Elevation: 3642
Lat: 45°15.05N  Long: 114°07.31W
CTAF/Unicom Freq: 122.8000
   
     For Weather-by-Phone, call 406-375-9149
Weather Advisories
10/20/2014 09:39 Z
Altimeter 29.92" Hg
Wind 150° @ 0 KT
Gusts --
Visibility 10 SM
Temperature 6° C (43° F)
Dewpoint -1° C (30° F)
Relative Humidity 64%
Density Altitude --
Condensation Altitude 6,700 feet
  Wind and Runways
Indicated Runway = 16
History
 
 
More Info
All DigiWx sites map
NOAA Forecast
 
Airport IQ 5010
(S59) Libby
(79S) Fort Benton
 
about DigiWx
 
FAA Disclaimer: The data displayed is for advisory purposes only and is not to be used for flight planning or operations. For official data, please call 406-375-9149 to hear the current automated AWOS voice message.
  METAR 6S5 200939Z AUTO 15000KT 10SM 06/M01 A2992